Pompano Beach, FL

3:51 AM EDT on August 29, 2016 (GMT -0400)
Pompano Beach

Weather History for KPMP - November, 2014

Change the Weather History Date:

Tuesday, November 18, 2014

  Actual Average Record
Temperature  
Mean Temperature 65 °F -  
Max Temperature 75 °F 82 °F 89 °F (1988)
Min Temperature 55 °F 64 °F 44 °F (1949)
Growing Degree Days 15 (Base 50)    
Moisture  
Dew Point 63 °F    
Average Humidity 85    
Maximum Humidity 90    
Minimum Humidity 76    
Precipitation  
Precipitation 0.04 in - - ()
Sea Level Pressure  
Sea Level Pressure 30.09 in    
Wind  
Wind Speed 11 mph (NW)    
Max Wind Speed 20 mph    
Max Gust Speed 24 mph    
Visibility 9 miles    
Events Rain    
Averages and records for this station are not official NWS values.
T = Trace of Precipitation, MM = Missing Value Source: NWS Daily Summary

Daily Weather History Graph

Daily Weather History Graph

Search for Another Location

Airport or City:

Trip Planner

Search our weather history database for the weather conditions in past years. The results will help you decide how hot, cold, wet, or windy it might be!

Date:

Astronomy

Nov. 18, 2014 Rise Set
Actual Time 6:41 AM EST 5:29 PM EST
Civil Twilight 6:16 AM EST 5:54 PM EST
Nautical Twilight 5:48 AM EST 6:22 PM EST
Astronomical Twilight 5:21 AM EST 6:49 PM EST
Moon 3:00 AM EST (11/18) 3:03 PM EST (11/18)
Length of Visible Light 11h 37m
Length of Day
10h 48m
Waning Crescent, 15% of the Moon is Illuminated
Nov 18
Waning Crescent
Nov 22
New
Nov 29
First Quarter
Dec 6
Full
Dec 14
Last Quarter

Hourly Weather History & Observations

Time (EST) Temp. Dew Point Humidity Pressure Visibility Wind Dir Wind Speed Gust Speed Precip Events Conditions
12:23 AM 75.0 °F 72.0 °F 90% 30.03 in 7.0 mi WNW 11.5 mph - N/A   Mostly Cloudy
12:33 AM 73.0 °F 68.0 °F 84% 30.03 in 10.0 mi WNW 15.0 mph - N/A   Partly Cloudy
12:53 AM 73.9 °F 68.0 °F 82% 30.02 in 10.0 mi WNW 5.8 mph - N/A   Mostly Cloudy
1:53 AM 73.0 °F 66.9 °F 81% 29.99 in 10.0 mi SW 3.5 mph - N/A   Mostly Cloudy
2:53 AM 73.9 °F 66.9 °F 79% 29.97 in 10.0 mi SSW 5.8 mph - N/A   Overcast
3:53 AM 73.0 °F 66.9 °F 81% 29.97 in 10.0 mi SW 5.8 mph - N/A   Clear
4:53 AM 72.0 °F 66.9 °F 84% 29.98 in 10.0 mi West 4.6 mph - N/A   Clear
5:53 AM 72.0 °F 66.9 °F 84% 29.99 in 10.0 mi West 8.1 mph - N/A   Scattered Clouds
6:53 AM 73.0 °F 66.9 °F 81% 30.03 in 10.0 mi West 8.1 mph - N/A   Mostly Cloudy
7:53 AM 73.9 °F 68.0 °F 82% 30.05 in 10.0 mi WNW 12.7 mph - N/A   Clear
8:53 AM 75.9 °F 68.0 °F 76% 30.07 in 10.0 mi WNW 16.1 mph - N/A   Clear
9:53 AM 75.9 °F 69.1 °F 79% 30.09 in 10.0 mi WNW 12.7 mph - N/A   Mostly Cloudy
10:53 AM 73.9 °F 68.0 °F 82% 30.10 in 10.0 mi NW 9.2 mph - N/A   Overcast
11:53 AM 73.9 °F 68.0 °F 82% 30.10 in 10.0 mi NW 10.4 mph - N/A   Overcast
12:13 PM 73.0 °F 69.1 °F 87% 30.09 in 5.0 mi NW 5.8 mph - 0.00 in Rain Light Rain
12:21 PM 73.9 °F 69.1 °F 85% 30.08 in 10.0 mi NNW 6.9 mph - 0.01 in Rain Light Rain
12:33 PM 73.0 °F 69.1 °F 87% 30.08 in 10.0 mi North 11.5 mph - 0.01 in   Overcast
12:53 PM 70.0 °F 66.0 °F 87% 30.09 in 10.0 mi NNW 12.7 mph - 0.01 in   Overcast
1:53 PM 66.9 °F 63.0 °F 87% 30.08 in 10.0 mi NNW 13.8 mph - 0.00 in Rain Light Rain
2:53 PM 64.9 °F 62.1 °F 90% 30.08 in 9.0 mi NNW 13.8 mph - 0.01 in   Overcast
3:42 PM 64.0 °F 60.1 °F 87% 30.09 in 9.0 mi NNW 17.3 mph - 0.00 in Rain Light Rain
3:53 PM 63.0 °F 59.0 °F 87% 30.10 in 8.0 mi NNW 18.4 mph 24.2 mph 0.00 in   Overcast
4:05 PM 62.1 °F 57.9 °F 86% 30.10 in 8.0 mi NNW 19.6 mph 24.2 mph N/A   Overcast
4:53 PM 61.0 °F 57.0 °F 87% 30.12 in 7.0 mi NNW 13.8 mph - 0.00 in Rain Light Rain
5:53 PM 60.1 °F 55.9 °F 86% 30.14 in 8.0 mi NNW 13.8 mph - 0.00 in Rain Light Rain
6:50 PM 57.2 °F 53.6 °F 88% 30.15 in 10.0 mi NNW 12.7 mph - 0.00 in   Overcast
6:53 PM 57.9 °F 54.0 °F 87% 30.15 in 10.0 mi NNW 13.8 mph - 0.00 in   Overcast
7:53 PM 59.0 °F 53.1 °F 81% 30.17 in 10.0 mi NNW 15.0 mph - N/A   Overcast
8:53 PM 57.0 °F 53.1 °F 87% 30.20 in 5.0 mi NNW 13.8 mph - 0.00 in Rain Light Rain
9:53 PM 57.0 °F 53.1 °F 87% 30.20 in 6.0 mi NNW 12.7 mph - 0.00 in Rain Light Rain
10:19 PM 55.9 °F 53.1 °F 90% 30.20 in 7.0 mi NNW 12.7 mph - 0.00 in Rain Light Rain
10:53 PM 57.0 °F 53.1 °F 87% 30.20 in 8.0 mi NNW 15.0 mph - 0.00 in   Overcast
11:53 PM 57.0 °F 54.0 °F 89% 30.18 in 8.0 mi NNW 13.8 mph - 0.02 in   Overcast